This is the latest recevied weather packets stored in our database for station/object VR2R-13. If no packets are shown the sender has not sent any weather packets the latest 10 day(s).
| Time | Temp. | Humidity | Pressure | Rain* | Wind** | Luminosity | Snow |
|---|---|---|---|---|---|---|---|
| 1777022546 | 16.11° C | 98% | 913.8 hPa | 0 mm | - | - | - |
| 1777022305 | 16.11° C | 98% | 913.8 hPa | 0 mm | - | - | - |
| 1777022245 | 16.11° C | 98% | 913.9 hPa | 0 mm | - | - | - |
| 1777021945 | 15.56° C | 98% | 913.9 hPa | 0 mm | - | - | - |
| 1777021644 | 15.56° C | 98% | 913.9 hPa | 1.27 mm | - | - | - |
| 1777021585 | 15.56° C | 98% | 913.9 hPa | 0.76 mm | - | - | - |
| 1777021344 | 15.56° C | 98% | 913.8 hPa | 0.25 mm | - | - | - |
| 1777021225 | 15.56° C | 98% | 913.6 hPa | 0 mm | - | - | - |
| 1777021045 | 15.56° C | 98% | 913.5 hPa | 0 mm | - | - | - |
| 1777020865 | 15.56° C | 98% | 913.5 hPa | 0.25 mm | - | - | - |
| 1777020745 | 15.56° C | 98% | 913.5 hPa | 0 mm | - | - | - |
| 1777020505 | 15° C | 97% | 913.5 hPa | 1.78 mm | - | - | - |
| 1777020444 | 15° C | 97% | 913.5 hPa | 1.52 mm | - | - | - |
| 1777020145 | 15° C | 97% | 913.3 hPa | 0.76 mm | - | - | - |
| 1777020144 | 15° C | 97% | 913.3 hPa | 0.76 mm | - | - | - |
| 1777019843 | 15° C | 97% | 913.3 hPa | 0.51 mm | - | - | - |
| 1777019785 | 15° C | 97% | 913.3 hPa | 0.51 mm | - | - | - |
| 1777019543 | 14.44° C | 97% | 913.3 hPa | 0.25 mm | - | - | - |
| 1777019425 | 14.44° C | 97% | 913.2 hPa | 0.25 mm | - | - | - |
| 1777019243 | 14.44° C | 97% | 913.2 hPa | 0 mm | - | - | - |
| 1777019064 | 14.44° C | 97% | 913.2 hPa | 0 mm | - | - | - |
| 1777018943 | 14.44° C | 97% | 913.1 hPa | 0 mm | - | - | - |
| 1777018704 | 14.44° C | 96% | 913.1 hPa | 0 mm | - | - | - |
| 1777018643 | 15° C | 96% | 913.2 hPa | 0 mm | - | - | - |
| 1777018345 | 16.11° C | 97% | 913 hPa | 0 mm | - | - | - |
* Rain latest hour (hover to see other rain measurements)
** Current wind speed in m/s (hover to see current wind gust speed)